User: anonymous   Login
Location: Unspecified
(0.0000°N, 0.0000°E)
Time: 10:15:46
(UTC+00:00)
Language:

SBIRS GEO 4 (USA 282) - Orbit

View from above orbital plane
View from above orbital plane
View from above satellite
View from above satellite

Ground track
Ground track

The orbit data is extracted from the following two-line orbital elements,

1 43162U 18009A   19107.90687538 -.00000323 +00000-0 +00000-0 0  9997
2 43162 005.7506 318.5588 0002397 065.5191 287.1140 01.00271479004599
Epoch (UTC): 17 April 2019 21:45:54
Eccentricity: 0.0002397
inclination: 5.7506°
perigee height: 35776 km
apogee height: 35796 km
right ascension of ascending node: 318.5588°
argument of perigee: 65.5191°
revolutions per day: 1.00271479
mean anomaly at epoch: 287.1140°
orbit number at epoch: 459

The dashed part of the orbit path shows where the satellite is in the earth's shadow,  

DLR